Date,TemperatureHighF,TemperatureAvgF,TemperatureLowF,DewpointHighF,DewpointAvgF,DewpointLowF,HumidityHigh,HumidityAvg,HumidityLow,PressureMaxIn,PressureMinIn,WindSpeedMaxMPH,WindSpeedAvgMPH,GustSpeedMaxMPH,PrecipitationSumIn
2012-1-1,77.1,71.4,65.9,69.2,66.6,63.0,93,85,74,30.08,29.97,15,2,15,0.01
2012-1-2,78.8,70.4,62.9,70.1,65.9,61.0,95,86,71,30.12,30.03,8,1,8,0.00
2012-1-3,80.3,71.7,64.4,70.1,66.6,62.6,96,85,68,30.20,30.08,10,1,10,0.00
2012-1-4,76.5,73.0,68.5,70.5,68.6,65.7,92,86,81,30.26,30.15,12,1,14,0.00
2012-1-5,79.1,74.3,71.7,68.7,66.4,62.8,86,77,67,30.25,30.12,19,2,19,0.02
2012-1-6,78.6,74.2,71.9,68.2,64.9,61.9,78,73,65,30.18,30.08,24,3,24,0.00
2012-1-7,78.2,73.4,70.6,67.7,62.9,60.4,77,70,56,30.14,30.06,18,2,18,0.00
2012-1-8,77.9,70.9,64.0,69.0,64.9,59.2,92,82,70,30.12,30.04,13,1,13,0.04
2012-1-9,78.6,73.9,70.9,67.6,66.2,64.6,85,77,67,30.15,30.06,16,2,16,0.00
2012-1-10,77.5,73.5,71.0,68.0,65.7,63.0,84,77,69,30.11,30.01,16,2,16,0.00
2012-1-11,77.7,73.3,68.7,67.7,65.8,64.4,87,78,67,30.07,29.97,15,2,15,0.02
2012-1-12,82.0,71.6,65.2,66.8,64.5,61.5,93,79,57,29.98,29.84,13,1,13,0.00
2012-1-13,79.2,70.8,63.5,66.3,62.7,57.9,88,76,60,29.91,29.82,10,1,10,0.00
2012-1-14,79.8,69.9,59.3,65.3,61.0,55.8,90,74,56,29.94,29.84,16,2,16,0.00
2012-1-15,78.5,75.9,73.2,69.9,67.4,64.5,83,75,66,29.99,29.83,29,6,29,0.07
2012-1-16,79.1,76.6,73.7,70.9,69.2,66.0,85,78,72,30.01,29.91,29,6,29,0.08
2012-1-17,77.9,76.0,74.6,70.8,69.7,68.4,85,81,74,30.00,29.90,30,6,30,0.07
2012-1-18,83.6,77.2,70.1,69.9,68.2,65.9,87,74,60,30.07,29.93,20,3,20,0.00
2012-1-19,79.7,72.3,64.6,70.9,67.2,62.3,94,84,70,30.17,30.04,9,1,10,0.00
2012-1-20,78.7,74.7,71.9,69.7,68.1,66.8,87,80,72,30.18,30.07,16,3,16,0.00
2012-1-21,78.3,74.6,72.2,69.8,67.8,66.2,87,80,70,30.20,30.08,22,3,22,0.01
2012-1-22,78.8,74.8,70.0,68.0,66.6,64.1,86,76,63,30.16,29.98,23,4,23,0.00
2012-1-23,78.3,71.3,63.8,69.4,65.8,61.4,94,83,71,30.08,29.98,12,1,12,0.00
2012-1-24,84.0,72.5,62.0,68.8,65.2,59.7,94,79,54,30.07,29.97,15,2,15,0.00
2012-1-25,82.8,75.8,69.8,68.3,65.6,61.2,88,71,52,30.05,29.93,14,3,14,0.00
2012-1-26,80.5,74.7,69.3,68.2,65.9,62.2,88,74,61,30.00,29.88,19,4,19,0.09
2012-1-27,81.1,72.3,64.7,69.1,65.3,61.7,92,80,59,30.07,29.91,9,1,9,0.00
2012-1-28,79.6,74.4,69.9,67.6,66.0,64.0,89,75,61,30.16,30.03,22,3,22,0.00
2012-1-29,79.3,74.0,69.7,68.0,65.8,63.1,89,76,62,30.19,30.11,20,4,20,0.10
2012-1-30,78.8,73.4,68.0,67.0,65.0,63.2,87,75,64,30.16,30.02,17,3,17,0.02
2012-1-31,79.3,73.9,68.8,66.8,63.8,60.5,85,71,55,30.06,29.94,20,3,20,0.00
2012-2-1,78.5,73.2,65.2,65.8,62.7,60.0,86,70,58,30.08,29.94,14,2,15,0.00
2012-2-2,79.3,73.6,68.1,62.9,61.5,59.8,82,66,54,30.07,29.99,20,3,20,0.00
2012-2-3,81.9,70.6,61.8,65.7,61.8,57.1,93,75,45,30.04,29.89,16,1,16,0.00
2012-2-4,81.3,70.4,60.9,67.1,62.8,57.0,91,78,59,29.91,29.79,11,1,11,0.00
2012-2-5,80.0,71.0,63.9,68.3,65.0,60.9,92,82,65,29.94,29.78,19,2,19,0.00
2012-2-6,79.2,71.1,64.2,69.1,65.1,61.8,93,82,63,29.94,29.84,18,1,18,0.10
2012-2-7,79.2,72.5,67.9,67.8,65.0,59.2,90,78,64,29.96,29.79,22,4,33,0.28
2012-2-8,74.1,69.1,63.6,58.7,55.7,50.9,77,63,45,30.15,29.96,18,4,21,0.06
2012-2-9,75.4,70.3,64.8,59.8,57.2,54.7,80,64,53,30.29,30.12,17,3,17,0.02
2012-2-10,78.5,73.3,70.0,65.1,61.6,58.6,76,67,58,30.29,30.16,20,4,20,0.00
2012-2-11,79.0,73.8,71.5,67.7,65.4,63.5,80,75,67,30.28,30.18,22,3,22,0.00
2012-2-12,77.7,73.8,71.9,69.0,66.7,64.6,83,79,72,30.26,30.14,19,4,19,0.00
2012-2-13,78.3,74.1,71.9,67.6,66.3,62.8,85,77,68,30.23,30.09,23,5,23,0.00
2012-2-14,80.3,72.8,66.7,69.1,67.0,64.3,94,83,61,30.16,30.07,18,2,18,0.02
2012-2-15,79.0,72.8,65.8,69.2,66.8,63.7,94,82,70,30.21,30.10,20,3,20,0.01
2012-2-16,78.0,73.8,71.8,68.6,66.4,64.6,85,78,70,30.24,30.14,19,3,19,0.00
2012-2-17,79.3,74.0,69.7,67.5,65.3,63.1,89,75,60,30.26,30.14,25,3,25,0.05
2012-2-18,77.9,73.4,70.7,66.9,65.3,63.1,85,76,65,30.23,30.11,28,4,28,0.01
2012-2-19,78.3,73.7,70.1,67.5,65.5,63.2,85,76,65,30.17,30.05,29,5,29,0.03
2012-2-20,79.1,73.9,71.2,68.2,65.5,63.6,82,75,66,30.15,30.04,23,4,23,0.02
2012-2-21,77.0,74.0,72.1,67.7,65.9,64.2,82,76,69,30.17,30.06,26,6,27,0.00
2012-2-22,78.0,73.9,71.6,67.5,66.0,64.2,86,77,67,30.14,30.03,27,4,27,0.00
2012-2-23,78.8,73.9,72.0,68.6,66.8,64.9,84,78,68,30.08,29.94,20,4,20,0.00
2012-2-24,78.3,73.6,70.9,68.9,67.6,66.1,88,82,70,30.02,29.92,15,2,15,0.00
2012-2-25,79.4,73.1,68.6,71.3,68.2,65.5,93,85,73,30.04,29.94,19,2,19,0.08
2012-2-26,76.0,73.7,71.7,68.5,66.6,64.1,87,78,72,30.11,29.97,27,4,27,0.01
2012-2-27,77.7,74.0,71.7,68.2,65.7,63.5,80,76,70,30.11,30.00,25,5,25,0.00
2012-2-28,79.3,74.0,71.4,67.6,65.8,63.9,83,76,66,30.12,30.03,32,5,32,0.00
2012-2-29,77.5,74.0,71.6,67.1,65.9,64.5,83,76,67,30.10,30.02,30,5,30,0.00
2012-3-1,78.5,74.2,72.6,67.5,65.5,63.8,80,74,67,30.11,30.02,24,5,24,0.00
2012-3-2,77.7,73.5,67.5,69.2,66.7,63.2,88,80,71,30.11,30.01,20,4,20,0.00
2012-3-3,77.5,73.4,70.4,68.8,66.9,63.9,88,80,71,30.08,29.96,23,5,23,0.00
2012-3-4,74.4,71.6,66.6,67.5,65.8,64.0,94,82,75,30.02,29.92,17,2,17,0.29
2012-3-5,71.3,68.1,65.6,68.1,65.8,63.8,95,92,87,29.98,29.84,17,1,17,1.65
2012-3-6,73.7,68.7,65.6,68.3,66.1,63.3,96,91,80,30.05,29.84,28,3,28,1.46
2012-3-7,74.1,69.9,66.3,68.2,66.1,64.8,95,88,78,30.12,29.99,15,3,16,0.36
2012-3-8,71.8,69.8,66.4,66.0,63.9,62.3,89,82,73,30.14,30.04,20,5,20,0.03
2012-3-9,73.7,70.5,64.9,68.4,65.8,61.7,94,85,80,30.11,29.93,27,3,38,0.01
2012-3-10,76.7,73.3,70.0,68.1,66.8,65.6,90,80,73,30.18,30.06,25,4,25,0.02
2012-3-11,76.8,72.9,70.2,69.0,66.5,63.2,90,81,73,30.20,30.11,22,4,23,0.01
2012-3-12,75.5,72.1,69.4,67.4,64.0,60.0,91,76,63,30.19,30.09,22,5,22,0.01
2012-3-13,76.1,72.2,70.3,65.9,62.6,58.0,80,72,64,30.14,30.04,19,4,20,0.00
2012-3-14,77.7,72.5,70.4,64.4,62.1,59.8,77,70,55,30.14,30.03,18,4,18,0.01
2012-3-15,79.3,73.4,69.9,66.6,64.0,61.0,82,73,64,30.19,30.08,20,3,20,0.00
2012-3-16,78.7,73.5,70.0,68.0,65.5,62.9,86,76,68,30.23,30.13,20,4,20,0.01
2012-3-17,79.3,74.0,71.3,68.0,66.0,63.4,84,76,67,30.21,30.10,25,4,25,0.00
2012-3-18,75.8,72.4,68.3,67.4,65.9,64.8,90,80,72,30.15,30.07,25,4,25,0.00
2012-3-19,79.0,74.4,71.7,66.8,65.6,63.4,83,74,60,30.09,29.99,14,4,22,0.01
2012-3-20,79.1,73.1,64.6,68.7,65.8,61.9,92,78,68,30.13,30.00,17,2,17,0.00
2012-3-21,78.5,73.7,69.2,68.2,65.8,63.6,85,76,68,30.15,30.06,19,3,19,0.00
2012-3-22,78.8,73.8,70.2,66.0,64.1,61.9,85,72,59,30.14,30.02,21,4,21,0.00
2012-3-23,79.8,74.1,71.0,66.6,64.4,62.0,83,72,58,30.12,30.02,23,4,23,0.00
2012-3-24,77.1,73.2,71.5,67.2,64.6,61.7,81,75,68,30.14,30.07,13,4,25,0.00
2012-3-25,78.0,73.0,69.8,64.9,63.1,61.4,82,71,61,30.14,30.05,21,4,21,0.00
2012-3-26,76.8,72.7,69.4,64.8,62.5,60.5,83,71,58,30.13,30.04,21,4,21,0.00
2012-3-27,77.1,72.0,68.3,65.4,62.6,58.4,83,73,62,30.12,30.04,16,3,16,0.00
2012-3-28,77.5,72.6,69.4,64.0,60.3,57.0,72,65,56,30.12,30.04,18,3,18,0.00
2012-3-29,78.7,73.3,69.4,64.9,61.7,58.3,75,67,55,30.16,30.05,14,3,14,0.00
2012-3-30,77.7,73.6,71.0,65.7,63.8,61.8,82,72,62,30.17,30.08,23,4,23,0.00
2012-3-31,79.2,74.4,71.8,67.2,64.3,60.3,82,71,59,30.16,30.05,24,4,24,0.00
2012-4-1,80.2,74.7,70.5,69.4,67.5,65.9,86,79,68,30.17,30.05,15,3,16,0.00
2012-4-2,79.3,74.2,68.9,69.1,66.7,65.3,90,78,65,30.12,30.01,13,2,13,0.00
2012-4-3,79.8,75.0,71.4,68.7,67.0,65.3,83,76,66,30.08,29.96,19,3,20,0.00
2012-4-4,78.7,74.7,72.5,70.0,67.9,66.3,83,80,73,30.06,29.97,17,4,24,0.00
2012-4-5,79.0,74.1,72.7,67.6,65.6,63.4,81,75,65,30.07,29.98,19,3,22,0.00
2012-4-6,78.5,73.7,70.5,68.7,66.5,64.8,88,78,69,30.14,30.01,22,3,22,0.03
2012-4-7,78.2,73.9,72.2,67.2,65.3,62.7,81,75,67,30.18,30.07,16,3,17,0.00
2012-4-8,75.8,72.0,68.2,68.0,65.5,63.1,90,80,72,30.20,30.09,24,4,24,0.09
2012-4-9,77.0,72.0,68.1,64.8,63.1,60.2,85,74,64,30.18,30.10,21,4,21,0.04
2012-4-10,76.4,71.1,67.4,65.2,63.1,60.2,86,76,65,30.17,30.07,20,4,20,0.04
2012-4-11,77.7,73.5,70.1,66.8,64.4,60.5,82,74,66,30.16,30.06,20,4,22,0.00
2012-4-12,80.3,74.8,68.8,68.2,66.3,64.4,88,75,60,30.17,30.06,15,3,15,0.00
2012-4-13,81.5,73.3,66.2,68.5,66.4,63.3,93,80,62,30.18,30.07,13,2,14,0.00
2012-4-14,78.8,74.4,68.9,69.4,67.6,66.0,92,80,69,30.20,30.10,14,2,14,0.00
2012-4-15,79.8,74.5,70.3,69.6,67.1,65.2,90,78,68,30.19,30.10,18,3,21,0.04
2012-4-16,80.0,75.0,72.3,67.8,65.2,62.9,81,72,61,30.19,30.10,20,3,20,0.00
2012-4-17,79.1,74.9,72.6,66.1,64.0,59.9,78,69,56,30.20,30.08,22,4,22,0.00
2012-4-18,79.8,75.0,72.2,66.7,64.6,62.6,79,70,58,30.17,30.08,21,3,22,0.00
2012-4-19,79.8,74.8,72.2,65.8,63.6,60.5,77,68,55,30.16,30.07,20,3,20,0.00
2012-4-20,79.8,74.0,70.6,66.1,63.9,60.7,79,71,59,30.13,30.02,18,3,18,0.01
2012-4-21,77.5,73.4,70.4,66.2,64.4,62.2,83,74,64,30.09,30.00,17,4,17,0.01
2012-4-22,76.2,71.4,67.9,68.3,65.7,63.3,89,83,69,30.14,30.00,21,4,21,0.07
2012-4-23,75.7,72.3,68.5,66.5,63.8,59.2,90,75,64,30.17,30.07,24,4,24,0.04
2012-4-24,77.8,73.2,70.9,65.8,63.2,60.6,77,71,62,30.20,30.09,22,4,22,0.00
2012-4-25,76.9,73.1,68.2,67.2,64.7,62.1,86,75,68,30.14,30.05,23,4,25,0.01
2012-4-26,79.0,74.1,69.4,68.4,66.5,64.7,88,77,67,30.10,30.03,19,4,19,0.00
2012-4-27,78.5,73.6,67.6,68.8,67.0,64.8,94,80,69,30.13,30.05,23,4,23,0.08
2012-4-28,78.7,75.1,72.5,68.6,67.1,65.9,82,76,68,30.17,30.06,27,4,27,0.00
2012-4-29,77.5,74.4,72.1,68.5,66.6,64.3,84,77,69,30.17,30.09,28,4,28,0.00
2012-4-30,79.3,74.4,70.6,67.5,65.7,63.3,83,75,65,30.17,30.07,22,4,22,0.05
2012-5-1,78.3,74.2,72.0,69.0,66.7,64.4,86,77,69,30.15,30.04,23,3,23,0.01
2012-5-2,79.9,74.6,70.6,67.3,65.7,62.7,87,74,61,30.12,30.01,21,3,21,0.00
2012-5-3,80.2,73.8,69.9,68.4,66.2,63.8,87,78,63,30.14,30.05,19,3,19,0.02
2012-5-4,78.3,74.0,70.4,69.2,66.7,64.6,85,78,71,30.14,30.06,20,3,25,0.00
2012-5-5,80.5,75.0,72.1,68.1,66.3,64.9,81,74,64,30.13,30.04,20,4,21,0.00
2012-5-6,80.5,75.6,71.8,69.3,67.1,65.3,83,75,67,30.12,30.05,21,3,21,0.00
2012-5-7,79.5,75.9,73.0,67.1,65.7,64.5,79,71,63,30.17,30.09,19,4,19,0.00
2012-5-8,78.8,74.6,71.6,66.5,64.8,62.9,80,72,63,30.19,30.11,17,4,18,0.00
2012-5-9,78.1,74.2,71.5,66.2,64.5,62.8,79,72,65,30.14,30.06,22,4,22,0.00
2012-5-10,79.1,74.7,71.2,66.6,64.4,62.6,79,71,60,30.10,30.02,14,3,14,0.01
2012-5-11,79.5,74.4,71.2,67.2,64.7,62.8,81,72,62,30.07,30.00,15,2,17,0.00
2012-5-12,79.5,74.4,68.2,65.7,64.0,62.2,81,70,60,30.09,29.99,13,2,13,0.00
2012-5-13,78.2,71.9,64.6,65.1,62.4,60.8,89,73,58,30.07,29.98,12,1,12,0.00
2012-5-14,80.5,72.9,64.1,65.1,63.0,56.1,89,72,49,30.03,29.95,14,2,14,0.00
2012-5-15,80.8,74.2,65.7,66.5,64.7,59.1,90,73,51,30.06,29.96,12,2,12,0.00
2012-5-16,81.1,75.8,71.4,70.7,67.4,64.8,86,76,66,30.12,30.00,15,3,15,0.00
2012-5-17,79.7,75.6,73.4,69.2,67.4,64.4,85,76,67,30.14,30.06,20,3,20,0.00
2012-5-18,80.6,76.1,73.5,69.3,67.4,64.6,84,75,66,30.13,30.05,15,3,15,0.00
2012-5-19,80.1,75.7,73.0,69.4,67.2,64.5,82,75,66,30.11,30.02,17,3,17,0.00
2012-5-20,81.8,75.8,72.7,70.8,67.8,64.4,85,77,64,30.14,30.02,20,3,20,0.06
2012-5-21,81.6,76.5,73.3,70.8,68.0,63.6,82,75,66,30.16,30.07,18,2,20,0.00
2012-5-22,82.4,76.9,73.6,69.1,66.9,63.9,79,72,61,30.17,30.10,20,3,21,0.00
2012-5-23,79.5,75.8,73.5,69.3,66.8,64.2,80,74,63,30.15,30.06,30,5,30,0.00
2012-5-24,80.8,76.3,73.0,69.8,67.8,66.1,82,75,66,30.14,30.08,24,4,24,0.00
2012-5-25,81.8,76.2,73.1,69.9,67.6,64.4,85,75,62,30.12,30.06,22,4,24,0.00
2012-5-26,82.5,76.1,71.8,69.6,67.8,65.7,87,76,60,30.14,30.06,20,4,20,0.01
2012-5-27,82.0,75.8,72.9,69.8,67.7,63.9,85,76,63,30.13,30.04,28,4,28,0.01
2012-5-28,81.3,76.2,73.8,68.3,65.1,60.9,76,69,59,30.17,30.09,27,4,27,0.00
2012-5-29,81.7,75.7,73.0,68.5,65.5,63.0,78,71,59,30.18,30.10,23,4,23,0.00
2012-5-30,79.4,74.8,72.6,69.7,66.7,64.1,86,76,67,30.17,30.09,19,4,21,0.02
2012-5-31,79.8,74.9,71.0,68.8,66.5,64.6,86,75,64,30.19,30.11,18,4,19,0.03
2012-6-1,79.1,74.9,71.9,69.2,66.7,64.4,84,76,68,30.20,30.10,20,4,20,0.03
2012-6-2,78.8,74.9,70.4,67.1,65.1,63.0,85,72,62,30.19,30.10,20,5,20,0.04
2012-6-3,78.8,75.0,72.6,67.2,65.1,62.7,79,71,64,30.15,30.06,19,4,19,0.00
2012-6-4,80.5,75.6,73.1,69.3,67.3,64.8,82,76,65,30.12,30.03,20,3,20,0.00
2012-6-5,80.0,75.5,73.1,69.8,67.9,65.5,86,77,70,30.12,30.05,22,3,22,0.00
2012-6-6,81.5,75.6,71.9,71.2,68.5,65.6,90,79,65,30.12,30.04,18,2,18,0.00
2012-6-7,82.0,76.6,73.6,70.2,68.0,63.8,83,75,62,30.11,30.03,21,4,21,0.01
2012-6-8,82.0,76.4,73.9,69.8,67.9,65.4,83,75,60,30.09,30.01,22,4,22,0.00
2012-6-9,81.9,76.5,72.5,69.0,67.4,64.7,83,74,61,30.08,29.98,19,3,19,0.00
2012-6-10,79.8,75.7,72.6,69.3,67.7,65.4,84,77,66,30.06,29.99,19,3,19,0.00
2012-6-11,80.2,76.2,73.0,70.8,68.7,67.2,84,78,71,30.08,29.99,13,2,13,0.00
2012-6-12,81.9,76.6,73.2,70.7,68.8,66.9,85,77,68,30.07,29.99,17,2,17,0.00
2012-6-13,81.4,76.3,72.1,72.9,70.0,68.4,90,81,67,30.07,29.98,12,2,16,0.02
2012-6-14,82.0,77.3,74.0,71.4,68.9,67.1,84,76,66,30.08,30.00,18,3,18,0.00
2012-6-15,81.4,76.2,73.1,69.9,67.9,66.0,82,76,66,30.13,30.04,12,2,12,0.00
2012-6-16,82.0,76.4,73.3,70.3,68.0,65.6,82,75,64,30.17,30.07,21,3,21,0.00
2012-6-17,82.8,76.7,74.3,69.8,68.1,66.6,82,75,64,30.21,30.11,22,3,22,0.00
2012-6-18,79.4,75.6,73.6,68.1,67.0,65.8,80,75,66,30.19,30.04,24,5,24,0.00
2012-6-19,79.2,75.1,71.3,72.1,68.8,65.9,90,81,72,30.06,29.95,19,3,19,0.11
2012-6-20,78.8,75.0,70.8,69.3,67.8,65.3,92,79,67,30.06,29.96,20,2,20,0.07
2012-6-21,79.6,76.0,73.5,69.2,67.7,66.0,82,75,67,30.09,30.01,17,3,17,0.00
2012-6-22,81.5,76.5,73.2,70.9,69.1,67.4,87,78,68,30.10,30.02,21,3,21,0.00
2012-6-23,79.4,75.5,72.0,70.8,68.5,65.1,90,79,70,30.12,30.05,19,3,20,0.12
2012-6-24,81.5,76.3,70.7,69.9,67.7,64.4,87,75,64,30.17,30.08,23,4,23,0.01
2012-6-25,79.8,75.1,71.6,69.3,68.3,66.4,90,80,67,30.20,30.12,22,4,23,0.20
2012-6-26,77.8,74.1,71.6,70.6,68.3,65.8,90,82,73,30.18,30.10,23,4,23,0.09
2012-6-27,79.0,75.1,69.9,68.2,66.4,63.7,88,75,65,30.11,30.03,23,5,23,0.11
2012-6-28,79.1,75.5,73.5,69.6,67.7,65.0,82,77,69,30.13,30.02,23,3,23,0.00
2012-6-29,80.8,76.5,74.1,69.4,67.5,65.7,81,74,65,30.16,30.08,19,4,19,0.00
2012-6-30,80.6,76.1,73.5,70.2,68.1,66.4,83,76,68,30.12,29.99,15,3,15,0.00
2012-7-1,81.0,76.3,72.1,70.7,68.9,67.3,88,78,70,30.04,29.96,15,2,15,0.02
2012-7-2,82.6,77.2,72.3,69.9,67.8,65.1,87,73,63,30.09,29.99,19,3,19,0.00
2012-7-3,80.2,74.8,70.6,71.8,68.1,65.7,92,80,70,30.10,30.04,21,3,21,0.48
2012-7-4,81.3,76.3,72.7,71.8,69.0,66.5,88,78,67,30.08,29.97,28,3,28,0.01
2012-7-5,81.1,76.1,73.0,71.7,69.9,67.8,90,81,71,30.06,29.99,27,4,27,0.04
2012-7-6,81.2,76.7,72.3,71.8,69.6,67.9,88,79,70,30.10,30.00,22,3,22,0.03
2012-7-7,80.4,75.7,71.7,69.7,68.1,66.3,89,78,67,30.10,30.03,26,4,26,0.07
2012-7-8,80.9,76.8,74.0,69.0,67.5,65.6,80,73,64,30.10,30.04,22,4,22,0.00
2012-7-9,79.9,76.1,70.7,70.7,67.5,63.6,85,75,65,30.12,30.05,20,4,21,0.05
2012-7-10,79.7,75.9,73.1,70.0,67.4,64.8,85,75,67,30.11,30.02,27,3,27,0.02
2012-7-11,80.5,76.5,73.6,69.8,67.0,64.6,78,72,65,30.08,30.01,19,3,19,0.00
2012-7-12,80.4,76.7,74.2,70.2,67.5,64.6,85,73,62,30.05,29.98,14,3,14,0.00
2012-7-13,81.4,76.7,73.0,72.2,70.4,68.4,90,81,69,30.06,29.98,27,3,27,0.06
2012-7-14,83.5,78.0,74.0,71.0,69.1,67.2,86,75,62,30.10,29.99,16,3,16,0.02
2012-7-15,80.2,76.2,72.8,70.7,68.2,65.3,86,76,69,30.09,30.01,19,3,19,0.03
2012-7-16,81.1,76.5,73.1,72.9,70.0,67.5,86,80,74,30.09,30.01,18,3,18,0.03
2012-7-17,80.9,76.3,73.1,70.7,69.4,67.2,88,79,70,30.05,29.99,20,4,20,0.03
2012-7-18,79.5,76.3,73.9,72.6,70.1,67.9,89,81,75,30.09,30.00,25,3,25,0.03
2012-7-19,80.8,76.7,73.1,70.7,68.5,66.4,85,76,66,30.10,30.02,18,4,20,0.03
2012-7-20,81.5,76.4,72.4,70.2,68.6,67.2,86,77,66,30.07,30.00,11,2,12,0.01
2012-7-21,82.5,76.9,70.7,69.9,68.3,67.1,90,75,63,30.04,29.97,15,2,15,0.00
2012-7-22,83.2,77.7,74.8,71.2,69.5,67.9,84,76,64,30.07,29.99,15,2,15,0.00
2012-7-23,82.2,77.9,75.2,71.0,69.6,67.8,82,76,66,30.09,30.02,19,4,19,0.00
2012-7-24,81.5,77.6,75.2,71.2,68.8,66.6,82,75,65,30.08,30.00,24,3,24,0.00
2012-7-25,82.8,77.7,74.4,70.1,67.6,65.7,79,71,61,30.06,29.99,18,3,18,0.00
2012-7-26,82.3,77.5,74.2,70.3,67.4,65.3,76,71,61,30.04,29.97,19,3,19,0.00
2012-7-27,82.4,77.2,73.6,70.2,67.7,65.4,85,73,61,30.06,29.98,17,2,17,0.06
2012-7-28,82.5,77.5,74.9,71.5,69.6,67.8,83,77,67,30.08,30.01,22,3,22,0.00
2012-7-29,81.9,76.6,73.0,72.1,69.5,67.3,87,79,69,30.09,30.01,23,4,24,0.06
2012-7-30,81.4,77.5,75.4,72.4,70.4,68.0,84,79,71,30.10,30.02,22,3,22,0.01
2012-7-31,82.9,78.4,75.7,71.7,70.0,68.7,82,76,64,30.10,30.01,18,3,18,0.00
2012-8-1,84.1,78.6,75.2,71.9,69.1,66.6,83,73,59,30.09,30.03,18,3,18,0.01
2012-8-2,81.3,77.3,74.8,71.5,69.0,67.2,84,76,67,30.10,30.02,18,2,18,0.01
2012-8-3,82.5,77.8,75.1,70.9,68.9,67.4,80,74,64,30.09,30.03,18,3,18,0.00
2012-8-4,82.8,77.9,74.3,70.8,68.7,66.4,82,74,64,30.10,30.01,17,3,17,0.01
2012-8-5,83.2,78.1,74.9,71.2,69.3,66.8,82,75,63,30.08,30.01,15,3,15,0.00
2012-8-6,82.2,77.6,73.2,72.6,69.0,67.0,88,75,64,30.08,30.00,20,3,20,0.06
2012-8-7,82.3,77.9,75.0,70.4,68.2,66.4,80,72,62,30.09,30.00,22,4,22,0.00
2012-8-8,82.1,77.5,72.6,70.7,68.7,66.4,87,75,64,30.12,30.02,23,3,23,0.06
2012-8-9,82.5,77.9,74.7,71.5,69.1,67.0,85,75,63,30.14,30.06,16,3,16,0.00
2012-8-10,82.0,77.5,74.0,69.8,67.8,63.2,82,72,58,30.12,30.01,13,3,13,0.00
2012-8-11,81.8,76.5,71.5,71.0,68.9,67.1,88,78,67,30.06,29.97,15,2,15,0.06
2012-8-12,82.7,77.9,73.5,71.8,69.8,67.5,84,76,66,30.07,29.97,18,3,18,0.00
2012-8-13,82.3,77.5,75.3,72.3,70.3,69.0,87,79,70,30.09,30.00,16,3,16,0.00
2012-8-14,82.5,77.6,73.1,71.9,69.6,67.9,89,77,66,30.09,29.99,18,4,18,0.07
2012-8-15,83.1,78.3,73.9,70.8,68.7,66.7,84,73,61,30.05,29.97,19,4,19,0.02
2012-8-16,83.7,78.2,75.4,70.6,68.4,65.7,80,72,58,30.07,29.98,20,3,20,0.00
2012-8-17,81.8,77.9,75.1,70.2,68.2,66.3,80,72,62,30.08,30.00,14,3,14,0.00
2012-8-18,82.0,77.0,73.3,72.0,69.7,67.2,87,79,68,30.06,29.96,13,2,13,0.07
2012-8-19,83.6,77.8,72.2,72.9,70.3,68.4,91,78,66,30.05,29.97,24,3,24,0.03
2012-8-20,82.2,78.1,75.7,72.2,70.7,69.3,84,78,70,30.09,30.01,14,3,14,0.00
2012-8-21,83.9,78.1,74.0,72.2,70.3,68.2,85,77,66,30.11,30.05,13,3,13,0.05
2012-8-22,82.1,77.5,74.4,73.3,70.2,68.6,87,78,70,30.11,30.04,13,2,13,0.06
2012-8-23,83.0,78.3,75.5,72.6,70.5,68.7,81,77,68,30.09,30.01,18,3,18,0.00
2012-8-24,83.8,78.7,76.1,72.9,70.6,68.6,82,76,68,30.10,30.02,21,4,21,0.00
2012-8-25,83.5,78.3,75.4,71.3,69.3,67.6,81,74,62,30.13,30.04,15,3,16,0.00
2012-8-26,82.0,77.7,74.8,70.6,68.4,67.0,82,73,64,30.09,30.02,17,3,17,0.02
2012-8-27,81.7,76.7,71.7,71.7,68.9,66.7,89,77,67,30.10,30.00,19,3,19,0.12
2012-8-28,82.5,77.2,73.4,71.3,68.9,66.3,88,76,65,30.07,30.00,20,3,20,0.07
2012-8-29,80.4,76.5,73.1,72.2,69.3,67.4,87,79,74,30.07,29.99,23,3,23,0.01
2012-8-30,83.3,78.0,74.9,71.9,69.5,67.5,81,75,65,30.07,29.99,22,3,22,0.00
2012-8-31,82.5,77.9,75.3,71.0,69.2,67.6,82,75,65,30.11,30.01,22,4,22,0.01
2012-9-1,83.6,78.0,75.0,71.4,68.7,66.9,80,73,62,30.11,30.03,22,3,22,0.00
2012-9-2,83.3,77.4,71.9,70.7,68.4,62.8,87,74,63,30.11,30.02,20,3,20,0.04
2012-9-3,83.1,77.8,75.0,71.8,68.8,67.0,83,74,62,30.10,30.00,24,3,24,0.07
2012-9-4,83.0,78.0,74.2,71.4,69.2,67.3,84,75,63,30.12,30.03,20,3,20,0.01
2012-9-5,82.3,77.2,74.2,70.5,68.6,66.4,85,75,62,30.12,30.02,22,4,22,0.01
2012-9-6,82.2,77.6,74.4,70.3,68.6,64.8,82,74,62,30.06,29.95,22,4,22,0.00
2012-9-7,81.2,75.9,70.7,72.1,69.1,64.9,93,80,62,30.03,29.93,20,3,20,0.25
2012-9-8,82.3,76.6,70.5,72.4,70.4,68.3,94,82,66,30.10,29.98,20,3,20,0.04
2012-9-9,83.3,78.2,75.5,72.2,70.7,69.3,85,78,67,30.13,30.03,21,4,21,0.01
2012-9-10,83.5,78.2,75.6,71.0,69.2,67.2,80,74,63,30.12,30.02,22,3,22,0.00
2012-9-11,81.8,77.9,75.1,69.7,67.9,65.9,78,72,63,30.07,29.99,19,3,19,0.00
2012-9-12,82.8,77.5,74.8,70.6,68.1,66.4,79,73,60,30.07,29.97,23,3,23,0.00
2012-9-13,81.2,77.4,75.3,70.3,68.1,65.8,79,73,65,30.08,29.99,19,3,19,0.00
2012-9-14,81.6,77.4,73.9,70.2,68.3,65.8,81,74,64,30.08,29.99,24,4,24,0.00
2012-9-15,81.3,77.1,74.2,70.7,68.4,65.9,85,75,65,30.07,29.97,20,3,20,0.14
2012-9-16,81.5,77.2,72.8,70.8,68.4,66.7,84,74,65,30.07,29.99,13,2,13,0.01
2012-9-17,82.5,77.6,74.8,71.3,68.8,66.8,81,75,64,30.05,29.95,18,2,18,0.02
2012-9-18,82.3,76.2,69.3,70.6,68.2,65.3,91,77,65,30.03,29.92,13,2,17,0.17
2012-9-19,82.5,77.4,74.0,72.6,70.3,67.6,88,79,70,30.04,29.95,16,2,16,0.00
2012-9-20,81.2,75.7,72.0,73.2,71.2,69.6,94,86,74,30.03,29.95,9,1,11,0.20
2012-9-21,82.9,77.0,71.5,72.9,70.5,68.8,94,81,66,30.05,29.97,14,2,17,0.01
2012-9-22,82.2,77.7,74.4,72.4,69.7,68.2,83,77,67,30.05,29.97,18,3,18,0.00
2012-9-23,80.7,77.2,74.4,74.4,71.7,69.1,91,83,78,30.08,30.00,23,3,23,0.09
2012-9-24,80.8,77.3,75.1,72.5,70.0,68.2,85,78,69,30.09,29.99,20,4,20,0.02
2012-9-25,82.6,77.4,74.7,70.8,68.7,67.3,83,75,61,30.09,29.99,11,3,22,0.00
2012-9-26,82.8,77.5,74.2,71.6,69.4,67.8,87,76,66,30.09,29.98,18,3,18,0.02
2012-9-27,81.5,77.1,72.8,71.4,69.2,67.7,89,77,67,30.08,30.00,14,3,14,0.02
2012-9-28,83.0,77.2,72.6,71.9,69.3,68.1,90,77,62,30.06,29.94,24,3,24,0.02
2012-9-29,81.0,77.3,74.4,71.3,69.5,66.0,82,77,69,30.04,29.94,19,3,20,0.00
2012-9-30,82.2,77.7,74.2,71.9,69.4,67.2,85,76,63,30.00,29.91,17,2,17,0.00
2012-10-1,83.2,76.7,70.5,71.8,69.4,65.6,93,79,58,29.99,29.88,12,1,12,0.00
2012-10-2,82.3,76.5,71.8,72.5,70.6,68.8,93,82,67,30.00,29.89,13,1,13,0.05
2012-10-3,83.3,77.6,75.1,72.6,69.9,68.6,83,77,68,30.05,29.95,13,1,13,0.00
2012-10-4,82.1,77.2,74.8,71.7,69.5,68.1,82,77,67,30.04,29.96,14,2,14,0.00
2012-10-5,81.7,76.0,69.7,71.3,68.8,66.6,92,79,67,30.01,29.88,16,2,16,0.00
2012-10-6,86.1,77.7,68.9,70.4,68.6,65.7,91,75,57,29.92,29.82,9,1,12,0.00
2012-10-7,85.8,79.8,73.8,72.3,69.5,66.1,80,71,54,29.90,29.81,12,2,12,0.00
2012-10-8,87.5,80.8,74.2,72.5,70.0,67.8,83,70,57,29.97,29.86,16,3,16,0.00
2012-10-9,88.3,79.0,70.6,72.3,69.8,66.4,88,74,57,30.07,29.93,13,1,13,0.00
2012-10-10,84.8,78.4,73.7,74.2,72.3,70.6,91,82,67,30.10,30.00,11,2,15,0.01
2012-10-11,82.5,78.5,75.6,73.8,72.0,70.2,90,81,73,30.11,29.99,17,3,17,0.01
2012-10-12,82.3,78.2,75.5,72.5,70.1,68.0,82,76,70,30.15,30.03,18,3,18,0.00
2012-10-13,80.8,77.8,75.9,73.5,71.2,68.8,84,80,75,30.17,30.09,15,3,15,0.00
2012-10-14,81.8,76.6,73.5,73.6,71.3,69.3,90,84,74,30.15,30.05,19,3,19,0.15
2012-10-15,82.3,77.8,73.5,71.5,70.2,67.5,90,78,68,30.11,29.98,20,3,20,0.03
2012-10-16,82.5,77.6,75.3,72.3,70.4,68.5,85,79,70,30.03,29.95,17,2,17,0.00
2012-10-17,82.5,75.7,69.0,71.5,68.9,66.0,92,80,68,29.99,29.91,15,2,15,0.00
2012-10-18,82.8,77.0,70.6,72.0,69.3,66.8,91,78,66,30.03,29.91,23,3,23,0.03
2012-10-19,82.2,77.9,75.3,70.1,68.3,65.8,82,73,60,30.04,29.94,32,4,32,0.00
2012-10-20,83.0,78.0,74.4,72.1,70.0,67.1,84,77,68,30.00,29.91,19,3,20,0.00
2012-10-21,83.0,77.7,74.3,70.4,68.4,66.6,82,73,64,30.00,29.92,22,4,22,0.03
2012-10-22,83.0,78.1,75.5,70.6,68.5,66.7,79,72,62,30.02,29.89,24,4,24,0.00
2012-10-23,83.5,78.1,75.1,71.8,69.7,65.3,86,76,57,29.98,29.87,20,3,20,0.00
2012-10-24,83.3,77.1,73.5,73.4,71.8,69.4,94,84,65,29.92,29.83,13,1,13,0.13
2012-10-25,83.3,77.1,73.4,74.4,72.5,70.2,95,86,72,30.00,29.88,14,1,14,0.04
2012-10-26,82.4,76.1,71.0,73.8,71.2,68.8,94,85,72,30.08,29.94,10,1,10,0.00
2012-10-27,82.0,76.5,71.5,73.0,70.7,68.7,93,83,73,30.09,29.98,13,2,13,0.02
2012-10-28,80.6,76.1,73.0,71.1,69.8,67.9,91,81,70,30.05,29.96,17,3,17,0.09
2012-10-29,81.8,77.0,72.9,70.1,68.8,67.0,84,76,65,30.09,29.98,19,3,19,0.03
2012-10-30,81.1,76.5,73.1,71.4,69.1,67.5,87,78,67,30.11,29.99,22,3,22,0.04
2012-10-31,78.7,75.1,74.0,70.3,69.6,68.8,87,83,75,30.07,30.01,10,1,11,0.00
2012-11-1,81.2,75.5,65.9,69.9,66.6,62.6,90,74,67,30.03,29.93,14,2,14,0.00
2012-11-2,80.9,74.1,65.5,68.5,65.3,62.4,91,75,59,29.99,29.85,15,2,15,0.00
2012-11-3,86.5,78.1,70.4,67.9,65.4,61.5,83,66,46,29.99,29.89,18,2,18,0.00
2012-11-4,81.8,72.7,68.0,69.9,66.8,64.4,91,82,66,29.99,29.94,11,1,11,0.00
2012-11-5,80.2,79.7,79.3,69.9,69.3,68.7,71,71,70,29.95,29.93,11,3,11,0.00
2012-11-8,80.2,76.5,75.2,69.9,68.6,67.5,80,77,71,30.12,30.03,13,3,13,0.00
2012-11-9,80.6,76.8,74.9,69.9,68.1,65.8,81,75,66,30.12,30.01,15,3,17,0.01
2012-11-10,81.2,76.6,74.0,68.3,66.6,64.4,79,71,62,30.09,29.99,18,3,18,0.02
2012-11-11,82.0,76.9,74.3,68.9,66.8,64.9,77,71,62,30.09,29.99,21,3,21,0.00
2012-11-12,81.2,76.6,74.3,69.1,67.4,65.9,78,73,64,30.14,30.04,15,3,15,0.00
2012-11-13,80.3,76.2,74.1,70.0,67.6,65.2,80,75,67,30.15,30.05,18,4,18,0.01
2012-11-14,80.8,76.2,73.5,69.5,67.4,65.7,84,74,64,30.17,30.07,22,4,22,0.07
2012-11-15,77.9,75.1,72.5,68.9,65.2,62.3,85,72,63,30.16,30.06,23,4,23,0.06
2012-11-16,80.3,74.4,68.9,67.2,65.1,61.5,87,73,55,30.14,30.03,23,4,23,0.02
2012-11-17,79.6,75.2,71.8,68.6,66.5,64.6,85,75,63,30.12,30.03,21,4,21,0.00
2012-11-18,80.4,76.3,74.6,70.0,67.5,65.8,81,74,63,30.14,30.02,22,3,22,0.00
2012-11-19,81.3,76.6,74.3,70.0,68.4,66.8,80,76,66,30.12,30.01,23,2,23,0.00
2012-11-20,78.3,75.5,74.2,68.6,66.7,64.4,81,74,65,30.08,29.97,26,3,26,0.00
2012-11-21,79.5,74.5,68.7,69.9,67.5,65.2,89,79,70,30.01,29.89,13,2,15,0.00
2012-11-22,81.4,72.7,65.8,70.2,67.0,63.4,94,83,66,29.97,29.87,10,0,10,0.00
2012-11-23,81.0,73.6,67.1,71.9,68.4,64.6,93,84,69,30.01,29.90,10,1,10,0.00
2012-11-24,79.7,73.9,68.7,71.6,68.9,66.3,94,85,75,30.01,29.92,11,1,11,0.00
2012-11-25,79.4,74.4,70.0,70.2,67.2,64.3,92,78,67,30.04,29.93,14,2,14,0.08
2012-11-26,76.5,73.8,69.9,67.0,63.5,60.2,88,71,61,30.09,29.97,17,3,17,0.06
2012-11-27,78.1,74.2,71.0,64.7,61.6,57.9,79,65,54,30.11,30.01,19,3,19,0.00
2012-11-29,81.0,73.4,63.9,68.8,65.8,61.7,95,78,60,30.07,29.96,11,1,11,0.01
2012-11-30,80.9,71.9,62.6,68.7,64.4,60.2,94,78,58,30.07,29.95,16,1,16,0.00
2012-12-1,82.0,73.0,63.7,68.8,65.1,61.2,93,77,54,30.07,29.94,16,1,16,0.00
2012-12-2,83.6,76.0,70.1,69.9,67.2,62.5,87,75,50,30.06,29.86,20,3,20,0.00
2012-12-3,85.3,77.9,71.5,73.0,69.9,68.2,90,77,61,30.01,29.88,14,2,14,0.01
2012-12-4,83.5,76.1,69.3,74.1,71.0,66.9,94,85,67,30.03,29.94,14,2,14,0.00
2012-12-5,79.7,75.3,70.8,73.4,71.1,69.0,95,87,76,30.11,29.99,8,1,11,0.11
2012-12-6,80.6,73.6,67.9,70.8,68.5,64.6,94,84,66,30.02,29.90,19,1,19,0.00
2012-12-7,81.1,73.5,67.4,70.5,67.8,64.5,94,83,65,30.01,29.86,13,1,13,0.00
2012-12-8,79.8,75.6,70.5,71.1,68.9,66.2,89,80,71,30.00,29.89,24,4,24,0.00
2012-12-9,79.2,75.7,73.8,70.1,68.4,66.8,85,78,71,30.01,29.89,34,5,34,0.07
2012-12-10,79.2,75.7,74.3,69.0,67.0,64.1,82,74,67,30.07,29.96,26,5,26,0.00
2012-12-11,78.6,74.9,73.1,69.7,66.3,64.6,84,75,69,30.13,30.01,24,4,24,0.03
2012-12-12,78.4,74.7,72.0,67.9,65.9,63.3,82,74,65,30.14,30.03,29,4,29,0.03
2012-12-13,78.3,73.8,70.2,68.8,66.9,64.7,87,79,69,30.17,30.07,27,4,27,0.08
2012-12-14,78.4,74.4,70.6,68.2,66.1,63.7,88,75,65,30.18,30.08,25,4,25,0.06
2012-12-15,79.2,74.0,70.4,68.3,66.4,63.1,87,77,66,30.17,30.06,24,4,24,0.05
2012-12-16,79.0,74.3,70.8,68.4,66.3,61.4,89,76,64,30.16,30.04,26,4,26,0.01
2012-12-17,75.0,72.7,69.8,68.4,66.7,64.5,89,82,74,30.16,30.07,26,4,28,0.17
2012-12-18,77.8,73.6,70.7,69.0,67.2,65.0,87,81,69,30.13,30.03,26,4,26,0.07
2012-12-19,76.6,73.8,71.2,70.3,67.5,65.7,88,81,76,30.09,29.99,27,4,27,0.08
2012-12-20,74.8,73.2,70.3,66.9,65.1,63.3,85,76,71,30.09,29.99,18,4,24,0.05
2012-12-21,77.2,73.3,70.2,67.8,64.4,61.6,86,74,66,30.08,30.00,24,4,24,0.02
2012-12-22,78.0,74.2,72.3,66.4,64.4,62.2,77,72,60,30.08,29.95,23,4,23,0.00
2012-12-23,79.2,73.2,65.9,65.7,62.8,56.7,87,71,46,30.04,29.92,9,1,18,0.00
2012-12-24,76.5,69.9,64.0,69.5,64.8,60.7,90,84,76,30.02,29.93,7,0,7,0.00
2012-12-26,77.9,74.5,73.2,67.5,66.2,64.8,78,75,69,30.08,29.96,21,4,21,0.00
2012-12-27,78.8,74.5,72.8,67.0,65.5,64.4,79,74,65,30.07,29.93,20,4,20,0.00
2012-12-28,79.4,71.8,63.2,68.4,65.1,60.2,93,80,66,30.00,29.90,14,1,14,0.00
2012-12-29,77.8,71.3,63.1,69.1,65.8,60.6,94,83,71,30.04,29.93,11,1,11,0.00
2012-12-30,77.0,73.0,69.4,70.8,68.6,65.6,94,86,77,30.04,29.95,17,2,17,0.20
2012-12-31,78.5,71.8,67.3,71.3,68.1,65.0,94,88,77,30.11,29.98,10,1,10,0.01
2013-1-1,73.5,70.7,67.9,69.4,66.7,64.4,94,87,78,30.14,30.03,18,3,18,0.09